Probability
0 0 0 0 0 0 0 0 0 0 0 0 0 0 0 0 0 0 0 0 0 0 0 0 0 0 0 0 0 0 0 0 0 0 0 0 0 0 0 0 0 0 0 0
0 0 0 0 0 0 0 0 0 0 0 0 0 0 0 0 0 0 0 0 0 0 0 0 0 0 0 0 0 0 0 0 0 0 0 0 0 0 0 0 0 0 0 0
0 0 0 0 0 0 0 0 0 0 0 0 0 0 0 0 0 0 0 0 0 0 0 0 0 0 0 0 0 0 0 0 0 0 0 0 0 0 0 0 0 0 0 0
0 0 0 0 0 0 0 0 0 0 0 0 0 0 0 0 0 0 0 0 0 0 0 0 0 0 0 0 0 0 0 0 0 0 0 0 0 0 0 0 0 0 0 0
0 0 0 0 0 0 0 0 0 0 0 0 0 0 0 0 0 0 0 0 0 0 0 0 0 0 0 0 0 0 0 0 0 0 0 0 0 0 0 0 0 0 0 0
0 0 0 0 0 0 0 0 0 0 0 0 0 0 0 0 0 0 0 0 0 0 0 0 0 0 0 0 0 0 0 0 0 0 0 0 0 0 0 0 0 0 0 0
0 0 0 0 0 0 0 0 0 0 0 0 0 0 0 0 0 0 0 0 0 0 0 0 0 0 0 0 0 0 0 0 0 0 0 0 0 0 0 0 0 0 0 0
0 0 0 0 0 0 0 0 0 0 0 0 0 0 0 0 0 0 0 0 0 0 0 0 0 0 0 0 0 0 0 0 0 0 0 0 0 0 0 0 0 0 0 0
0 0 0 0 0 0 0 0 0 0 0 0 0 0 0 0 0 0 0 0 0 0 0 0 0 0 0 0 0 0 0 0 0 0 0 0 0 0 0 0 0 0 0 0
0 0 0 0 0 0 0 0 0 0 0 0 0 0 0 0 0 0 0 0 0 0 0 0 0 0 0 0 0 0 0 0 0 0 0 0 0 0 0 0 0 0 0 0
0 0 0 0 0 0 0 0 0 0 0 0 0 0 0 0 0 0 0 0 0 0 0 0 0 0 0 0 0 0 0 0 0 0 0 0 0 0 0 0 0 0 0 0
0 0 0 0 0 0 0 0 0 0 0 0 0 0 0 0 0 0 0 0 0 0 0 0 0 0 0 0 0 0 0 0 0 0 0 0 0 0 0 0 0 0 0 0
0 0 0 0 0 0 0 0 0 0 0 0 0 0 0 0 0 0 0 0 0 0 0 0 0 0 0 0 0 0 0 0 0 0 0 0 0 0 0 0 0 0 0 0
0 0 0 0 0 0 0 0 0 0 0 0 0 0 0 0 0 0 0 0 0 0 0 0 0 0 0 0 0 0 0 0 0 0 0 0 0 0 0 0 0 0 0 0
0 0 0 0 0 0 0 0 0 0 0 0 0 0 0 0 0 0 0 0 0 0 0 0 0 0 0 0 0 0 0 0 0 0 0 0 0 0 0 0 0 0 0 0
0 0 0 0 0 0 0 0 0 0 0 0 0 0 0 0 0 0 0 0 0 0 0 0 0 0 0 0 0 0 0 0 0 0 0 0 0 0 0 0 0 0 0 0
0 0 0 0 0 0 0 0 0 0 0 0 0 0 0 0 0 0 0 0 0 0 0 0 0 0 0 0 0 0 0 0 0 0 0 0 0 0 0 0 0 0 0 0
0 0 0 0 0 0 0 0 0 0 0 0 0 0 0 0 0 0 0 0 0 0 0 0 0 0 0 0 0 0 0 0 0 0 0 0 0 0 0 0 0 0 0 0
0 0 0 0 0 0 0 0 0 0 0 0 0 0 0 0 0 0 0 0 0 0 0 0 0 0 0 0 0 0 0 0 0 0 0 0 0 0 0 0 0 0 0 0
0 0 0 0 0 0 0 0 0 0 0 0 0 0 0 0 0 0 0 0 0 0 0 0 0 0 0 0 0 0 0 0 0 0 0 0 0 0 0 0 0 0 0 0
0 0 0 0 0 0 0 0 0 0 0 0 0 0 0 0 0 0 0 0 0 0 0 0 0 0 0 0 0 0 0 0 0 0 0 0 0 0 0 0 0 0 0 0
0 0 0 0 0 0 0 0 0 0 0 0 0 0 0 0 0 0 0 0 0 0 0 0 0 0 0 0 0 0 0 0 0 0 0 0 0 0 0 0 0 0 0 0
0 0 0 0 0 0 0 0 0 0 0 0 0 0 0 0 0 0 0 0 0 0 0 0 0 0 0 0 0 0 0 0 0 0 0 0 0 0 0 0 0 0 0 0
0 0 0 0 0 0 0 0 0 0 0 0 0 0 0 0 0 0 0 0 0 0 0 0 0 0 0 0 0 0 0 0 0 0 0 0 0 0 0 0 0 0 0 0
0 0 0 0 0 0 0 0 0 0 0 0 0 0 0 0 0 0 0 0 0 0 0 0 0 0 0 0 0 0 0 0 0 0 0 0 0 0 0 0 0 0 0 0
0 0 0 0 0 0 0 0 0 0 0 0 0 0 0 0 0 0 0 0 0 0 0 0 0 0 0 0 0 0 0 0 0 0 0 0 0 0 0 0 0 0 0 0
Height
5691 5692 5691 5692 5691 5691 5690 5690 5690 5690 5690 5690 5690 5691 5692 5692 5693 5694 5695 5696 5697 5699 5701 5703 5705 5707 5709 5710 5712 5714 5715 5717 5718 5718 5719 5721 5722 5723 5724 5725 5726 5727 5728 5729
5682 5682 5682 5681 5681 5680 5680 5680 5680 5680 5680 5679 5680 5681 5682 5682 5683 5684 5685 5686 5687 5688 5690 5692 5694 5696 5698 5699 5701 5703 5704 5706 5707 5708 5709 5710 5711 5712 5713 5714 5715 5716 5717 5718
5672 5673 5672 5671 5671 5670 5670 5670 5670 5670 5670 5669 5669 5671 5672 5673 5673 5674 5674 5675 5676 5678 5679 5680 5682 5684 5686 5688 5690 5691 5693 5694 5696 5696 5697 5699 5699 5700 5701 5702 5703 5704 5705 5705
5662 5662 5662 5661 5661 5660 5660 5661 5660 5660 5659 5659 5660 5659 5663 5662 5663 5664 5664 5665 5666 5667 5668 5670 5671 5673 5674 5676 5677 5679 5681 5682 5684 5685 5686 5687 5688 5689 5690 5690 5691 5691 5692 5692
5653 5653 5652 5652 5652 5651 5650 5650 5650 5649 5648 5648 5649 5648 5651 5652 5652 5653 5654 5655 5656 5657 5658 5659 5660 5661 5662 5664 5665 5667 5668 5670 5671 5672 5674 5675 5675 5676 5677 5677 5678 5678 5679 5679
5644 5643 5642 5642 5641 5640 5640 5640 5639 5638 5637 5637 5639 5638 5638 5640 5641 5643 5644 5644 5645 5646 5647 5648 5649 5650 5651 5652 5653 5655 5656 5657 5658 5660 5661 5662 5663 5663 5664 5664 5665 5665 5666 5666
5635 5634 5633 5632 5631 5631 5630 5630 5629 5627 5626 5627 5629 5626 5627 5630 5631 5632 5633 5633 5634 5635 5636 5636 5637 5638 5639 5640 5641 5642 5644 5645 5646 5647 5648 5649 5650 5651 5651 5651 5652 5652 5653 5654
5625 5625 5624 5622 5622 5621 5621 5620 5620 5618 5617 5617 5617 5616 5618 5620 5620 5621 5621 5622 5623 5624 5624 5625 5626 5627 5627 5628 5629 5630 5631 5632 5633 5634 5635 5636 5637 5637 5638 5638 5639 5639 5640 5641
5615 5615 5614 5613 5612 5611 5610 5610 5610 5609 5607 5606 5605 5606 5608 5609 5609 5610 5610 5611 5611 5612 5613 5613 5614 5615 5616 5616 5617 5618 5618 5619 5620 5621 5622 5623 5624 5624 5625 5625 5625 5626 5627 5627
5606 5605 5605 5603 5603 5602 5601 5601 5600 5598 5597 5596 5596 5597 5599 5599 5599 5599 5599 5599 5600 5601 5601 5602 5602 5603 5603 5604 5605 5605 5606 5607 5607 5608 5609 5610 5610 5611 5611 5612 5612 5613 5613 5614
5598 5596 5596 5594 5593 5593 5592 5591 5590 5589 5588 5587 5587 5590 5590 5590 5589 5589 5588 5588 5589 5589 5590 5590 5591 5591 5591 5592 5593 5593 5594 5594 5594 5595 5595 5596 5597 5597 5597 5598 5598 5598 5599 5599
5589 5587 5586 5586 5585 5583 5583 5582 5581 5581 5579 5578 5578 5582 5580 5580 5579 5578 5578 5578 5578 5578 5578 5579 5579 5579 5580 5580 5580 5581 5581 5581 5581 5581 5582 5582 5583 5583 5584 5584 5585 5585 5585 5586
5580 5579 5578 5577 5578 5576 5574 5573 5572 5571 5570 5569 5569 5573 5571 5570 5569 5568 5568 5568 5568 5568 5568 5568 5568 5568 5568 5568 5568 5568 5568 5568 5568 5568 5568 5569 5569 5570 5570 5571 5571 5571 5571 5572
5572 5571 5570 5569 5567 5566 5565 5565 5563 5562 5561 5561 5561 5562 5562 5560 5559 5558 5558 5557 5557 5557 5557 5557 5556 5556 5556 5556 5556 5556 5556 5555 5555 5555 5555 5555 5556 5556 5557 5557 5557 5558 5558 5558
5563 5562 5561 5560 5558 5557 5556 5556 5555 5554 5553 5552 5553 5553 5553 5550 5549 5548 5548 5547 5546 5546 5546 5545 5545 5544 5544 5544 5544 5544 5543 5543 5543 5542 5542 5542 5542 5543 5543 5543 5544 5544 5545 5545
5555 5554 5553 5551 5550 5548 5547 5547 5546 5545 5544 5543 5543 5543 5542 5540 5539 5538 5537 5536 5536 5535 5535 5534 5533 5533 5532 5532 5532 5532 5531 5531 5530 5530 5530 5529 5529 5530 5530 5530 5531 5531 5531 5532
5548 5546 5544 5543 5542 5539 5539 5540 5538 5536 5536 5535 5534 5535 5532 5531 5530 5528 5527 5526 5525 5524 5523 5522 5521 5521 5520 5519 5519 5519 5518 5518 5517 5517 5517 5517 5517 5517 5517 5517 5517 5517 5518 5518
5540 5538 5536 5534 5533 5531 5534 5530 5529 5527 5527 5525 5524 5524 5522 5521 5520 5518 5517 5515 5514 5513 5512 5511 5510 5509 5508 5508 5507 5506 5505 5505 5505 5504 5504 5504 5504 5504 5504 5504 5504 5504 5504 5504
5533 5531 5528 5526 5524 5523 5524 5522 5520 5518 5518 5517 5515 5514 5513 5511 5510 5509 5507 5505 5503 5502 5501 5499 5498 5498 5497 5496 5495 5494 5493 5493 5492 5492 5492 5492 5492 5491 5491 5491 5491 5491 5491 5491
5525 5523 5521 5518 5516 5515 5517 5514 5511 5510 5509 5508 5506 5505 5503 5502 5501 5500 5497 5495 5493 5492 5490 5488 5487 5486 5485 5484 5483 5482 5481 5481 5480 5480 5480 5479 5479 5479 5478 5478 5478 5478 5478 5478
5518 5516 5513 5511 5508 5507 5507 5505 5503 5503 5502 5499 5497 5495 5494 5492 5491 5489 5487 5485 5483 5481 5479 5478 5476 5475 5474 5473 5472 5471 5470 5469 5468 5468 5467 5467 5466 5466 5466 5466 5465 5465 5465 5465
5510 5508 5506 5503 5501 5502 5498 5496 5495 5494 5491 5489 5488 5486 5484 5482 5480 5479 5476 5474 5472 5471 5469 5467 5465 5464 5463 5461 5460 5459 5458 5457 5456 5456 5455 5455 5454 5453 5453 5453 5452 5452 5452 5452
5503 5501 5498 5497 5496 5492 5490 5488 5486 5485 5483 5481 5479 5477 5475 5473 5471 5469 5467 5465 5463 5461 5459 5457 5455 5453 5452 5450 5449 5448 5447 5446 5445 5444 5443 5443 5442 5441 5441 5440 5440 5439 5439 5439
5495 5493 5490 5488 5486 5483 5481 5479 5478 5476 5474 5472 5470 5469 5467 5465 5462 5460 5458 5456 5453 5451 5449 5447 5445 5443 5442 5440 5438 5437 5435 5434 5433 5433 5432 5431 5430 5429 5429 5428 5428 5427 5427 5427
5487 5484 5482 5480 5478 5475 5473 5471 5469 5467 5465 5464 5462 5460 5458 5456 5454 5451 5449 5447 5444 5442 5440 5437 5435 5434 5432 5430 5428 5426 5424 5423 5422 5421 5420 5420 5419 5418 5417 5416 5416 5416 5415 5415
5479 5476 5474 5472 5470 5468 5466 5463 5461 5459 5457 5455 5454 5452 5450 5447 5445 5443 5440 5438 5435 5433 5431 5428 5426 5424 5422 5420 5418 5416 5414 5413 5411 5410 5409 5408 5407 5406 5405 5405 5405 5404 5404 5403
Wind_Speed
34 35 35 36 36 37 37 37 37 37 37 37 38 37 37 37 37 38 38 39 39 40 41 42 42 42 42 42 42 42 42 42 41 41 41 42 42 42 43 44 45 44 44 44
34 35 35 36 36 37 37 38 37 37 37 38 38 38 37 37 37 38 38 39 39 40 41 43 43 43 43 43 43 43 43 43 43 43 43 43 43 43 44 45 46 46 45 45
34 34 35 35 35 36 37 38 38 38 38 39 39 38 37 37 37 38 38 38 39 39 40 42 43 43 43 43 44 44 44 44 44 44 44 44 45 45 45 46 46 47 48 48
33 33 34 35 36 36 37 37 38 38 39 39 39 40 38 38 38 38 38 38 39 39 39 41 42 43 44 44 44 45 45 45 45 45 45 46 47 47 46 47 47 48 49 48
32 33 33 34 35 36 37 37 37 38 39 40 39 41 40 39 39 39 39 39 39 39 40 40 41 43 43 44 44 45 46 45 46 46 46 47 48 48 47 48 48 48 49 49
32 33 34 35 35 36 36 37 38 39 39 41 39 40 41 39 39 39 39 39 39 39 40 40 40 41 42 43 44 45 46 47 47 47 48 48 48 48 48 48 48 48 48 49
31 32 33 34 35 35 35 35 36 37 37 39 38 39 40 39 38 38 38 38 38 38 38 40 41 42 42 43 44 45 46 47 48 48 48 48 48 48 48 48 48 48 48 48
31 32 32 32 33 33 33 34 34 36 37 37 37 38 38 37 37 37 37 37 38 38 39 40 40 42 43 44 44 45 45 46 47 48 48 48 48 48 48 48 48 48 49 50
31 32 32 32 31 32 33 33 34 35 37 37 38 38 37 36 36 37 37 37 37 38 39 40 40 41 42 42 43 44 45 46 47 48 49 49 49 49 49 48 49 49 49 50
30 31 31 31 31 32 32 33 33 34 36 37 38 37 36 35 34 35 36 36 36 37 38 39 40 41 42 42 42 43 44 45 46 48 48 49 49 49 49 49 49 50 51 51
30 30 30 30 30 30 31 32 33 34 35 35 36 36 35 34 34 34 35 35 35 36 37 38 39 40 41 42 42 43 43 44 46 47 48 49 49 50 50 50 50 50 51 51
29 29 29 30 30 29 30 31 31 33 34 35 35 35 35 34 35 35 35 35 36 36 37 38 39 40 40 41 42 42 43 44 45 46 48 49 49 50 51 51 52 52 52 52
27 28 28 28 28 28 29 29 31 32 33 34 34 34 33 33 34 34 36 37 37 37 38 38 39 39 40 41 41 42 43 44 45 46 46 47 49 50 50 50 51 51 52 52
26 26 27 27 28 28 28 28 29 31 32 33 33 34 33 33 34 35 35 36 37 38 38 39 39 39 40 41 42 42 43 44 45 45 46 47 49 49 49 50 50 50 51 53
27 27 27 28 29 29 28 28 29 31 31 32 32 32 33 34 35 35 35 36 36 36 38 39 39 40 40 41 41 42 42 43 44 45 46 47 48 48 48 49 49 50 51 53
27 28 28 28 29 29 30 29 30 30 31 32 32 33 33 33 34 34 35 36 37 37 37 37 38 40 40 40 41 41 42 42 43 44 45 46 47 48 48 49 49 50 50 51
26 27 28 28 27 29 29 28 29 30 30 31 31 31 32 33 34 34 34 35 35 36 37 37 37 38 39 40 41 42 42 42 42 43 44 45 45 46 47 48 48 48 49 49
26 26 27 28 28 29 28 27 28 29 30 30 30 30 31 32 33 34 35 35 35 35 35 36 37 37 37 38 39 40 41 42 42 42 43 43 44 45 46 46 46 47 48 48
25 25 26 26 26 26 25 25 26 27 28 29 30 31 31 31 32 33 34 34 35 35 35 36 36 37 37 37 37 38 39 40 41 41 41 41 42 43 44 44 45 45 46 46
24 24 24 24 25 26 25 25 26 27 26 27 28 29 30 30 32 32 33 34 35 35 35 35 36 36 37 37 37 37 38 39 40 41 41 41 41 42 43 43 43 44 44 45
24 24 24 24 25 25 26 26 27 27 27 27 27 28 29 30 32 33 33 34 34 35 35 35 36 36 36 37 36 37 37 37 38 39 40 41 40 41 41 42 43 44 44 45
23 24 25 25 27 26 26 26 27 27 27 27 27 27 28 29 30 31 32 33 33 33 33 34 35 35 35 35 35 36 36 36 36 37 37 39 39 39 40 40 41 42 43 44
24 24 25 25 26 27 27 26 26 27 27 27 27 27 27 28 29 30 31 31 32 32 32 33 33 34 34 35 35 35 35 35 35 35 36 36 37 38 38 39 39 40 41 42
24 25 26 26 26 26 27 27 27 27 26 27 27 27 27 28 28 28 29 29 30 31 32 32 32 33 33 33 34 34 34 34 34 35 35 35 36 36 37 38 38 39 39 39
25 26 26 26 26 26 26 25 25 25 25 26 26 27 27 28 27 28 28 29 29 30 30 30 31 31 31 31 32 32 33 33 34 34 34 35 35 36 36 36 37 37 38 38
25 26 26 26 26 26 25 25 24 24 24 25 25 26 26 26 26 27 27 28 28 29 29 29 29 29 30 30 30 30 31 31 32 33 33 34 34 34 34 34 35 36 37 38
Wind_Direction
267 264 263 264 264 264 264 264 264 263 263 263 261 260 259 258 257 257 256 256 255 254 253 252 252 252 253 253 253 254 255 255 256 256 256 256 256 256 255 255 255 255 256 257
268 266 265 265 264 263 263 263 263 262 263 263 262 260 259 258 258 257 257 256 255 254 253 252 253 253 253 253 254 254 255 256 256 257 256 256 256 256 256 255 256 257 257 256
268 268 265 264 264 264 263 263 263 263 263 264 263 261 260 259 258 258 257 256 255 254 254 253 253 253 254 254 254 254 255 255 255 256 256 256 256 257 257 257 257 257 257 258
268 267 266 264 263 264 263 263 264 264 264 264 264 264 260 260 259 258 257 256 256 255 255 255 254 254 254 254 254 254 255 256 255 256 256 256 257 257 258 258 257 257 258 258
269 268 266 265 265 265 265 265 265 265 266 265 264 265 263 261 260 259 258 257 257 257 256 256 256 255 255 255 255 255 254 255 255 255 256 256 257 258 258 259 259 258 258 258
271 269 268 266 265 265 266 266 266 267 267 266 265 266 265 262 261 260 259 259 258 258 257 256 256 256 256 257 256 256 255 255 256 256 256 257 257 258 258 259 259 259 259 259
273 272 271 269 267 266 266 266 267 266 265 266 266 266 266 264 263 262 261 260 260 259 258 258 257 257 257 258 258 257 257 256 256 256 256 257 257 258 259 260 259 259 260 260
276 274 273 272 270 268 267 266 265 267 267 267 267 267 268 268 266 264 264 263 262 261 260 260 260 259 259 259 259 259 257 256 256 256 256 256 257 258 259 260 260 259 260 260
278 276 274 273 272 270 267 266 266 267 268 269 268 269 269 269 269 267 265 264 264 263 262 262 261 260 260 260 259 259 258 257 257 256 256 256 257 258 259 259 259 259 260 260
279 279 276 274 272 271 270 269 267 267 269 270 269 268 268 269 269 268 266 265 264 263 263 262 262 261 260 260 260 260 260 260 260 259 257 257 257 258 259 259 259 259 259 259
281 281 278 276 274 274 272 270 269 269 269 270 270 269 269 269 268 267 266 265 264 263 263 263 263 262 261 261 261 262 262 262 261 260 258 258 258 258 259 259 259 259 259 259
283 281 279 278 276 274 273 272 271 270 270 269 270 271 271 271 270 268 267 266 266 265 264 265 264 263 262 262 262 262 262 262 262 261 259 258 259 259 259 260 260 260 259 258
283 281 281 279 278 276 274 273 272 271 271 270 270 271 270 270 270 270 269 269 269 268 267 266 266 265 263 262 262 263 263 263 263 262 261 260 260 260 260 261 262 261 259 258
283 280 279 279 279 278 276 274 273 271 270 270 270 270 270 270 270 271 271 271 271 270 269 268 268 266 264 263 263 264 264 264 264 263 263 261 260 260 261 261 261 261 259 258
283 281 280 279 277 276 276 275 272 271 271 270 271 270 270 270 270 272 272 273 272 272 271 270 268 266 265 264 263 264 265 265 264 264 264 263 262 261 261 261 261 260 260 259
286 284 282 281 279 277 276 275 273 272 271 271 271 270 270 270 271 273 274 273 273 272 272 271 269 268 267 266 265 265 266 266 265 265 264 264 263 261 261 262 261 261 261 261
288 287 287 285 282 280 279 278 276 273 273 272 271 271 271 272 273 274 275 275 274 274 274 272 271 270 269 268 267 266 266 266 266 266 264 264 263 262 262 262 262 261 261 261
290 288 288 287 285 282 283 282 281 278 274 273 272 271 272 274 275 276 276 276 276 277 276 274 272 272 271 270 269 267 266 266 266 266 265 265 264 264 263 263 262 261 260 260
291 290 289 289 286 285 286 286 285 283 279 276 274 274 274 275 275 276 277 278 278 278 276 274 273 273 272 271 271 270 268 267 267 267 266 265 265 265 264 264 263 262 262 261
290 290 290 288 287 287 288 288 287 285 285 283 280 278 277 277 278 278 278 278 278 278 277 276 274 274 273 273 272 272 270 269 268 267 267 266 266 266 265 264 263 263 263 262
291 290 290 288 288 288 289 289 288 286 288 286 284 281 280 280 280 280 280 280 279 279 278 276 275 275 274 273 273 273 273 271 270 268 267 267 268 267 266 264 264 263 263 263
291 292 291 290 288 289 289 287 287 288 287 287 287 285 284 283 283 283 283 282 281 281 280 279 277 276 275 274 274 274 274 273 271 270 269 268 268 268 267 266 265 264 264 264
290 291 292 292 290 287 285 285 285 287 287 288 288 288 286 286 286 285 285 284 283 282 282 281 280 278 276 276 275 274 274 274 273 271 270 269 269 269 268 268 267 266 266 265
289 290 290 291 291 289 287 286 285 286 286 287 288 289 288 288 289 289 288 287 285 284 284 283 282 280 279 277 277 276 275 275 274 273 272 271 271 270 269 268 268 268 268 266
291 290 290 289 291 292 290 288 287 286 287 288 288 288 288 289 291 291 290 289 288 288 287 286 284 284 283 282 280 279 278 277 275 274 274 273 272 271 270 269 269 269 268 268
289 289 289 290 290 290 291 289 287 285 286 287 288 288 289 291 293 293 292 292 290 289 289 288 287 286 286 284 282 281 280 279 277 275 274 273 272 271 271 270 269 269 269 269